Location: ?????
(30.1912°N, 31.1612°E)
Time: 13:52:11
(UTC+00:00)

Daily predictions for brighter satellites

Satellite Brightness Start Highest point End
(mag) Time Altitude Azimuth Time Altitude Azimuth Time Altitude Azimuth
IRIDIUM 104 4.3 17:14:26 10° S 17:19:37 74° E 17:24:50 10° N
Cosmos 1328 3.5 17:23:51 10° S 17:27:27 70° E 17:31:05 10° N
IRIDIUM 114 4.4 17:23:33 10° S 17:28:46 88° W 17:34:00 10° N
Cosmos 2034 Rocket 4.4 17:23:11 10° N 17:29:16 45° E 17:35:18 10° SSE
Meteor 1-24 Rocket 4.0 17:25:45 10° SSW 17:31:22 73° W 17:36:48 10° N
SJ-6B 3.3 17:29:08 10° S 17:32:37 55° W 17:36:04 10° NNW
Tiangong -2.0 17:31:06 10° WSW 17:34:21 81° NNW 17:37:36 10° ENE
Cosmos 2082 Rocket 2.5 17:29:05 10° N 17:34:41 53° ENE 17:40:13 10° SE
DELTA 2 R/B (1) 3.7 17:30:25 10° WSW 17:35:57 83° NNW 17:41:31 10° ENE
Cosmos 1300 Rocket 3.9 17:32:04 10° N 17:36:13 45° E 17:40:20 10° SSE
Cosmos 2369 Rocket 2.6 17:32:37 10° S 17:37:55 41° ESE 17:43:14 10° NE
USA 267 3.5 17:34:17 10° SE 17:40:49 73° SW 17:47:22 10° NW
CZ-4 R/B 1.2 17:37:22 10° SSE 17:40:58 61° ENE 17:44:38 10° N
Cosmos 1461 3.4 17:37:55 10° NW 17:41:53 56° WSW 17:45:47 10° SSE
Tsikada Rocket 4.1 17:36:14 10° S 17:42:27 62° E 17:48:45 10° NNE
Cosmos 1777 Rocket 4.3 17:38:12 10° S 17:43:06 42° E 17:47:59 10° NNE
Terra 3.7 17:41:22 10° E 17:43:39 14° ENE 17:45:57 10° NE
BREEZE-M R/B 4.0 17:39:51 10° WNW 17:44:55 34° SW 17:47:53 10° SSE
Resurs 01 Rocket 2.3 17:41:08 10° S 17:45:27 55° W 17:49:47 10° NNW
Delta 7925 Rocket 4.1 17:41:40 10° SW 17:45:41 30° SSE 17:49:15 13° ESE
Cosmos 1908 Rocket 4.4 17:46:10 10° NNW 17:50:30 52° W 17:54:46 10° S
USA 186 2.0 17:49:28 17° SE 17:51:09 37° ENE 17:53:41 10° N
Okean-O 4.4 17:51:55 13° E 17:53:43 16° ENE 17:56:22 10° NNE
Cosmos 158 Rocket 4.0 17:53:57 10° NNW 17:58:47 71° WSW 18:03:38 10° S
Okean O Rocket 2.8 17:56:56 17° ESE 17:59:04 25° ENE 18:02:37 10° NNE
Cosmos 2263 4.4 17:55:45 10° S 18:01:10 48° ESE 18:06:35 10° NNE
SPOT 5 3.2 17:56:43 12° SSE 18:01:22 58° ENE 18:06:34 10° N
PAYLOAD B 4.2 17:58:12 10° SSE 18:03:43 79° ENE 18:09:14 10° N
Cosmos 1606 2.0 18:01:30 10° N 18:04:33 72° E 18:06:26 21° SSE
CZ-4B R/B 3.6 18:03:46 23° ESE 18:05:05 29° ENE 18:08:17 10° NNE
Cosmos 1340 Rocket 3.8 18:06:28 10° NNE 18:09:45 27° ENE 18:10:37 24° ESE
Cosmos 1570 Rocket 4.1 18:05:54 10° N 18:11:07 62° ENE 18:14:31 21° SSE
Helios 1B rocket 3.0 18:16:58 28° E 18:17:45 31° ENE 18:21:02 10° N
ERS-1 Rocket 3.5 18:16:04 25° SE 18:18:25 40° ENE 18:23:03 10° N
OAO 3 Copernicus 4.2 18:14:04 10° WSW 18:19:03 82° SSE 18:23:40 12° ENE
ADEOS 4.4 18:25:27 10° S 18:30:26 48° W 18:35:28 10° NNW
OAO 2 Rocket 3.3 18:26:06 10° SW 18:30:55 54° SSE 18:33:07 30° E
Cosmos 990 Rocket 4.0 18:29:23 19° S 18:33:00 57° ESE 18:38:04 10° NNE
CZ-4C R/B 1.4 18:35:26 10° SSW 18:39:15 81° WNW 18:43:49 10° NNE
Helios 1A 2.7 18:40:39 10° NNE 18:44:35 87° WNW 18:46:02 38° SSW
IRS-1A Rocket 4.3 18:43:25 39° SE 18:45:22 62° ENE 18:50:48 10° N
BREEZE-M DEB (TANK) 4.3 18:45:32 10° WNW 18:47:09 18° NNW 18:49:13 10° NNE
Nadezhda 4 Rocket 4.2 18:45:06 36° SE 18:47:17 50° E 18:53:21 10° NNE
Okean 2 Rocket 3.8 18:43:30 10° NNE 18:47:18 36° ENE 18:47:18 36° ENE
Aureole 1 Rocket 4.4 18:49:35 38° ESE 18:50:29 40° E 18:56:59 10° NNE
Hubble Space Telescope 2.2 18:50:20 10° SW 18:52:05 23° SW 18:52:05 23° SW
Cosmos 2151 Rocket 3.6 18:50:14 10° N 18:54:41 60° E 18:54:52 59° E
Meteor 1-11 4.2 18:54:26 38° SSE 18:56:41 71° E 19:02:28 10° NNE
Cosmos 2221 Rocket 3.5 18:57:47 59° S 18:58:37 88° E 19:03:09 10° N
Okean 1 Rocket 4.0 18:54:58 10° NNE 18:58:15 34° NE 18:58:15 34° NE
Cosmos 2285 Rocket 3.9 18:56:22 34° S 18:59:09 65° ESE 19:05:30 10° NNE
CZ-4B R/B 4.4 18:57:17 15° SSW 19:01:07 36° W 19:06:05 10° NNW
Cosmos 44 4.3 18:59:03 10° SW 19:03:04 40° WNW 19:07:08 10° N
ASTEX 1 3.3 18:59:00 10° NNE 19:03:45 60° E 19:03:45 60° E
COSMOS 2406 4.3 19:00:09 10° NW 19:05:24 38° WSW 19:08:17 23° SSW
Chandra Rocket (1) 3.6 18:50:25 10° WSW 19:08:23 51° S 19:09:46 46° SE
Cosmos 783 Rocket 4.5 19:04:35 10° N 19:09:47 61° ENE 19:10:02 60° E
Cosmos 1428 Rocket 4.4 19:10:48 56° SE 19:11:46 63° E 19:17:51 10° NNE
Tiangong 0.8 19:09:31 10° WNW 19:11:47 17° NNW 19:13:22 13° NNE
Ariane Rocket 3.6 19:14:10 41° ENE 19:14:10 41° ENE 19:18:32 10° N
Cosmos 2180 Rocket 4.4 19:14:22 10° N 19:20:36 86° W 19:22:04 56° S
Terra 2.5 19:19:52 41° SW 19:20:43 46° W 19:25:15 10° NNW
Sich 1 Rocket 3.8 19:16:59 10° N 19:20:58 69° N 19:20:58 69° N
Yuri Rocket 4.4 19:18:10 10° WSW 19:27:50 65° SSE 19:29:12 56° SE
Cosmos 1025 Rocket 4.0 19:28:15 40° W 19:28:41 41° W 19:32:49 10° N
Okean-O 3.9 19:29:18 32° WSW 19:29:42 33° W 19:33:39 10° NNW
Cosmos 1092 Rocket 4.2 19:30:19 53° E 19:30:19 53° E 19:36:07 10° NNE
USA 245 4.2 19:32:01 50° WNW 19:32:01 50° WNW 19:35:08 10° NNW
Okean O Rocket 3.6 19:34:12 19° WSW 19:35:08 21° W 19:38:25 10° NW
NOSS 3-4 (A) 4.0 19:40:49 10° NNW 19:48:16 80° WSW 19:49:40 64° S
NOSS 3-4 (C) 4.0 19:40:53 10° NNW 19:48:19 81° WSW 19:49:39 65° S
Spot 2 Rocket 4.4 19:48:25 40° WSW 19:48:30 40° W 19:53:15 10° NNW
SPOT 3 Rocket 3.9 19:51:33 61° WNW 19:51:33 61° WNW 19:56:06 10° NNW
Cosmos 1898 Rocket 4.1 19:58:00 53° NW 19:58:00 53° NW 20:02:26 10° N
Cosmos 1980 Rocket 4.3 21:30:48 20° NNE 21:30:48 20° NNE 21:32:25 10° NNE
Cosmos 2297 Rocket 3.9 21:21:28 10° NNW 21:24:09 29° N 21:24:09 29° N
Cosmos 1697 Rocket 4.4 21:33:55 28° N 21:33:55 28° N 21:36:42 10° N
Cosmos 2227 Rocket 4.0 21:54:26 10° N 21:57:02 27° N 21:57:02 27° N
ATLAS 2AS CENTAUR R/B 4.2 22:06:27 10° N 22:12:01 27° NE 22:12:26 27° ENE
Cosmos 2263 Rocket 4.0 22:40:03 10° NNW 22:42:32 27° N 22:42:32 27° N
CENTAUR R/B 3.7 23:01:55 33° NE 23:01:55 33° NE 23:05:19 10° NNE
SL-16 R/B 3.7 23:03:12 33° NNE 23:03:12 33° NNE 23:06:15 10° NNE
Cosmos 2333 Rocket 3.7 23:09:54 32° NE 23:09:54 32° NE 23:13:05 10° NNE
CZ-2C R/B 4.2 23:17:20 31° NNW 23:17:20 31° NNW 23:20:07 10° NNW
Resurs 1-4 Rocket 4.1 23:13:39 10° NE 23:16:26 20° ENE 23:16:26 20° ENE
IDEFIX/ARIANE 42P 4.1 23:18:07 10° NNE 23:20:57 33° NNE 23:20:57 33° NNE
Milstar 3 Cent rocket 4.0 23:27:36 29° ESE 23:27:36 29° ESE 23:30:10 10° E
ATLAS 5 CENTAUR R/B 4.3 23:27:00 10° N 23:30:48 21° NE 23:35:08 10° ESE
CZ-2D R/B 3.7 23:32:37 10° NE 23:36:04 28° ENE 23:36:04 28° ENE
Cosmos 1844 Rocket 3.9 23:35:35 10° N 23:40:42 36° ENE 23:41:06 35° ENE
Cosmos 2360 Rocket 2.9 23:50:12 51° NNE 23:50:12 51° NNE 23:54:20 10° NNE
